www.pogodaiklimat.ru

Погода и климат >> Архив погоды >> Кука Острова >> Rarotonga


ПОГОДА в Rarotonga

  • Прогноз погоды в Rarotonga
  • Монитор погоды в Rarotonga
  • Климат города

АРХИВ ПОГОДЫ в Rarotonga

Время (UTC), дата Ветер
(напр.,м/с)
 
Видим.   Явления Облачность Т
(С)
Тd
(С)
f
(%)
Тe
(С)
Тes
(С)
Комфортность P
(гПа)
Po
(гПа)
Тmin
(С)
Tmax
(С)
R
(мм)
R24
(мм)
S
(см)
09 18.04 В 4 20 км 9/5 420 м
[Cu med, cong Ac As]
+27.4 +24.1 82 +38 +38 очень
душно
1014.8 1015.0
12 18.04 СВ 4 20 км 9/9 540 м
[Cu Sc]
+27.8 +21.7 69 +36 +36 очень
душно
1014.1 1014.0 +29.3
15 18.04 СВ 4 20 км 6/6 660 м
[Cu Sc]
+27.5 +20.1 64 +34 +34 очень
душно
1013.7 1014.0
18 18.04 СВ 3 20 км 5/1 750 м
[Cu hum Ac trans]
+27.3 +20.0 64 +33 +34 очень
душно
1015.1 1015.0
21 18.04 В 6 50 км 3/3 600 м
[Cu hum]
+28.9 +22.2 67 +38 +41 очень
душно
1015.3 1015.0
00 19.04 В 6 50 км 3/3 600 м
[Cu hum Ac trans]
+29.1 +23.2 71 +39 +43 очень
душно
1013.2 1013.0 +24.7
03 19.04 В 5 20 км 6/6 630 м
[Cu med, cong]
+28.0 +22.9 74 +37 +38 очень
душно
1012.5 1013.0
06 19.04 В 3 20 км 5/5 630 м
[Cu Sc]
+27.4 +22.4 74 +36 +36 очень
душно
1013.3 1013.0
09 19.04 В 3 20 км 5/5 630 м
[Cu med, cong]
+27.4 +22.6 75 +36 +36 очень
душно
1014.3 1014.0
15 19.04 СВ 2 20 км 4/4 700 м
[Cu hum]
+27.0 +21.0 70 +34 +34 очень
душно
1012.6 1013.0
18 19.04 СВ 2 50 км 1/1 900 м
[Cu hum]
+27.0 +19.3 63 +33 +34 очень
душно
1014.5 1015.0
21 19.04 В 5 50 км 1/1 750 м
[Cu hum]
+29.0 +21.5 64 +37 +43 очень
душно
1014.7 1015.0
00 20.04 В 4 50 км 3/3 600 м
[Cu hum]
+29.5 +23.0 68 +39 +45 очень
душно
1013.0 1013.0 +25.0
03 20.04 В 4 50 км 3/3 700 м
[Cu hum]
+29.0 +24.2 75 +40 +41 очень
душно
1012.2 1012.0
06 20.04 ЮВ 1 20 км 3/3 700 м
[Cu hum]
+26.0 +22.3 80 +34 +34 очень
душно
1013.6 1014.0
09 20.04 ЮВ 2 20 км слабый ливневой дождь 5/5 540 м
[Cu med, cong]
+26.0 +22.3 80 +34 +34 очень
душно
1014.1 1014.0
12 20.04 ЮВ 1 20 км {ливн. осадки} 5/5 660 м
[Cu Sc]
+25.0 +22.0 83 +32 +32 очень
душно
1013.3 1013.0 +30.0
15 20.04 ЮВ 2 20 км {ливн. осадки} 5/5 480 м
[Cu med, cong]
+24.8 +22.7 88 +33 +33 очень
душно
1012.7 1013.0
18 20.04 В 2 20 км {ливн. осадки} 5/5 660 м
[Cu Sc]
+25.8 +23.3 86 +35 +35 очень
душно
1014.7 1015.0
21 20.04 В 4 20 км осадки на расстоянии 8/5 660 м
[Cu med, cong Ac As]
+29.4 +23.0 68 +39 +42 очень
душно
1015.7 1016.0
00 21.04 В 3 20 км {ливн. осадки} 8/5 600 м
[Cu med, cong Ac As]
+29.0 +23.2 71 +39 +42 очень
душно
1014.1 1014.0 +23.6 2
03 21.04 В 3 50 км 3/3 750 м
[Cu hum]
+29.0 +22.3 67 +38 +39 очень
душно
1013.8 1014.0
06 21.04 Ю 1 20 км 3/3 750 м
[Cu hum]
+24.5 +22.1 86 +32 +32 очень
душно
1015.6 1016.0
09 21.04 Ю 1 20 км 4/4 700 м
[Cu hum]
+23.8 +21.4 86 +30 +30 очень
душно
1016.0 1016.0
12 21.04 В 1 20 км 4/4 700 м
[Cu hum]
+25.9 +22.4 81 +34 +34 очень
душно
1015.5 1016.0 +30.0
15 21.04 В 2 20 км 4/4 700 м
[Cu hum]
+25.0 +21.4 80 +32 +32 очень
душно
1014.6 1015.0
18 21.04 ЮВ 2 50 км 4/4 700 м
[Cu hum]
+26.2 +21.4 75 +33 +34 очень
душно
1016.6 1017.0
21 21.04 ЮВ 5 50 км 3/3 750 м
[Cu hum]
+28.8 +21.7 66 +37 +41 очень
душно
1016.6 1017.0
00 22.04 ЮВ 5 50 км 5/4 540 м
[Cu med, cong Ac trans]
+29.4 +22.1 65 +38 +42 очень
душно
1014.1 1014.0 2
03 22.04 ЮВ 5 20 км 8/8 540 м
[Cu med, cong]
+27.5 +22.4 74 +36 +36 очень
душно
1014.0 1014.0
06 22.04 ЮВ 5 20 км {ливн. осадки} 6/6 480 м
[Cu med, cong]
+26.3 +22.0 77 +34 +34 очень
душно
1015.2 1015.0 0.4
09 22.04 ЮВ 3 20 км 6/6 540 м
[Cu med, cong]
+26.4 +21.0 72 +33 +33 очень
душно
1015.8 1016.0
12 22.04 В 2 20 км 6/6 480 м
[Cu med, cong]
+24.5 +22.0 86 +32 +32 очень
душно
1014.7 1015.0 +30.0
15 22.04 штиль 0 20 км 1/1 750 м
[Cu hum]
+24.5 +19.9 76 +30 +30 очень
душно
1014.1 1014.0
18 22.04 В 1 20 км 5/5 700 м
[Cu med, cong]
+24.8 +22.1 85 +32 +33 очень
душно
1015.8 1016.0
21 22.04 В 4 50 км 4/4 630 м
[Cu med, cong Ci fib]
+29.4 +22.4 66 +38 +44 очень
душно
1016.1 1016.0
00 23.04 В 5 50 км 4/4 600 м
[Cu hum Ci fib]
+29.9 +23.0 67 +40 +45 очень
душно
1013.9 1014.0 +23.7
03 23.04 В 5 50 км 3/3 700 м
[Cu hum Ci fib]
+28.4 +22.1 69 +37 +38 очень
душно
1013.4 1013.0
06 23.04 В 5 20 км 4/4 700 м
[Cu med, cong]
+26.6 +23.0 81 +36 +36 очень
душно
1014.7 1015.0
09 23.04 В 4 20 км 4/4 700 м
[Cu hum]
+26.0 +21.5 76 +33 +33 очень
душно
1015.4 1015.0
12 23.04 В 3 20 км 4/4 700 м
[Cu hum]
+26.3 +21.9 77 +34 +34 очень
душно
1014.3 1014.0
15 23.04 В 3 20 км 5/5 700 м
[Cu med, cong]
+26.5 +21.9 76 +34 +34 очень
душно
1013.8 1014.0
18 23.04 В 6 50 км 5/5 700 м
[Cu med, cong]
+26.5 +21.3 73 +34 +34 очень
душно
1014.9 1015.0
21 23.04 В 3 50 км 5/3 750 м
[Cu hum Ci fib]
+28.9 +22.0 66 +37 +44 очень
душно
1015.3 1015.0
00 24.04 В 5 50 км 4/3 600 м
[Cu hum Ci fib]
+29.0 +22.4 68 +38 +43 очень
душно
1013.1 1013.0 +24.0
03 24.04 В 5 50 км 3/3 700 м
[Cu med, cong Ci fib]
+28.5 +22.0 68 +37 +38 очень
душно
1012.0 1012.0
06 24.04 В 5 20 км 4/4 630 м
[Cu hum]
+27.5 +22.4 74 +36 +36 очень
душно
1013.2 1013.0
09 24.04 В 5 20 км осадки на расстоянии 6/6 540 м
[Cu med, cong]
+27.0 +23.4 81 +37 +37 очень
душно
1014.1 1014.0
12 24.04 В 4 20 км {ливн. осадки} 6/5 480 м
[Cu Sc Ac As]
+26.3 +22.9 82 +35 +35 очень
душно
1013.8 1014.0 +29.9 1
15 24.04 В 7 20 км 5/5 540 м
[Cu Sc]
+27.3 +24.9 87 +39 +39 очень
душно
1013.7 1014.0
18 24.04 СВ 6 50 км 1/1 600 м
[Cu hum Ci fib]
+27.7 +24.7 84 +39 +40 очень
душно
1014.6 1015.0
21 24.04 В 5 50 км 3/3 600 м
[Cu hum]
+29.0 +23.4 72 +39 +44 очень
душно
1015.5 1016.0
00 25.04 В 6 50 км 5/5 600 м
[Cu med, cong]
+29.1 +24.0 74 +40 +43 очень
душно
1013.4 1013.0 +24.1
03 25.04 СВ 2 20 км 5/5 540 м
[Cu med, cong]
+28.6 +23.4 73 +39 +40 очень
душно
1013.0 1013.0

 

Местоположение метеостанции Rarotonga (Кука Острова): широта -21.20 долгота -159.80 высота над уровнем моря 7 м.

В архиве по умолчанию представлена погода в Rarotonga за последнюю неделю. Архивные данные за месяц целиком и за предыдущие месяцы, начиная с января 2011 года, Вы можете получить, выбрав интересующий диапазон дат из раскрывающегося списка и нажав кнопку "Ввод!".

Внимание! Время в таблицах - всемирное. Для получения местного времени необходимо прибавить поправку, которая в Rarotonga равна -10 ч.

Смотрите также архив погоды в соседних городах и на ближайших метеорологических станциях:

Погода в Aitutaki (Кука Острова) (264 км)
Погода в Bora-Bora Airport (Французская Полинезия) (1004 км)
Погода в Hanan Airport (Кука Острова) (1080 км)
Погода в Tubuai (Французская Полинезия) (1097 км)
Погода в Tahiti-Faaa (Французская Полинезия) (1144 км)
Погода в Manihiki (Кука Острова) (1205 км)
Погода в Penrhyn (Кука Острова) (1367 км)
Погода в Le Mafa (Самоа) (1487 км)
Погода в Lufi-Lufi (Самоа) (1488 км)
Погода в Togitogiga (Самоа) (1498 км)

Пояснения к столбцам:

Ветер - указаны скорость ветра в м/с - средняя за 10 мин, порывы в срок и между сроками (в фигурных скобках) и направление, откуда дует ветер: С - северный, СВ - северо-восточный, В - восточный, ЮВ - юго-восточный, Ю - южный, ЮЗ - юго-западный, З - западный, СЗ - северо-западный.
Видимость - горизонтальная дальность видимости в метрах или километрах. При видимости от 1 до 10 км при отсутствии осадков обычно наблюдается дымка, при ухудшении видимости до 1 км и менее - туман. В сухую погоду видимость может ухудшаться дымом, пылью или мглою.
Явления - указаны атмосферные явления, наблюдавшиеся в срок или в последний час перед сроком; фигурными скобками обозначены явления, наблюдавшиеся между сроками (за 1-3 часа до срока); квадратными скобками обозначены град или гололедные отложения с указанием их диаметра в мм.
Облачность - указаны через наклонную черту общая и нижняя облачность в баллах и высота нижней границы облаков в метрах; квадратными скобками обозначены формы облаков: Ci - перистые, Cs - перисто-слоистые, Cc - перисто-кучевые, Ac - высококучевые, As - высокослоистые, Sc - слоисто-кучевые, Ns - слоисто-дождевые, Cu - кучевые, Cb - кучево-дождевые. Подробнее классификацию облаков см. в Атласе облаков (PDF).
T - Температура воздуха - температура, измеренная на высоте 2 м над землей.
Td - Температура точки росы - температура, при понижении до которой содержащийся в воздухе водяной пар достигнет насыщения.
f - Относительная влажность воздуха - влажноcть воздуха, измеренная на высоте 2 м над землей.
Te - Эффективная температура - температура, которую ощущает одетый по сезону человек в тени. Характеристика душности погоды. При расчете учитывается влияние влажности воздуха и скорости ветра на теплоощущения человека.
Tes - Эффективная температура на солнце - температура, которую ощущает человек, с поправкой на солнечный нагрев. Характеристика знойности погоды. Зависит от высоты солнца над горизонтом, облачности и скорости ветра. Ночью, в пасмурную погоду, а также при ветре 12 м/с и более поправка равна нулю.
P - Атмосферное давление - приведенное к уровню моря атмосферное давление.
Po - Атмосферное давление - измеренное на уровне метеостанции атмосферное давление.
Tmin - Минимальная температура - минимум температуры воздуха на высоте 2 м над землей.
Tmax - Максимальная температура - максимум температуры воздуха на высоте 2 м над землей.
R - Количество осадков - Количество выпавших осадков за период времени, мм. При наведении курсора мыши на число - период времени, за который выпало указанное количество осадков.
R24 - Количество осадков - Количество выпавших осадков за 24 часа, мм.
S - Снежный покров - Высота снежного покрова, см. При наведении курсора мыши на число - состояние снежного покрова и степень покрытия местности в баллах.